STARLINK-3097 (49448 NORAD) Tracking and Keplerian Element Data

This shows tracking and keplerian element data for the satellite.

Feedback or suggestion? Click here.




ElementValue
Catalog49448
NameSTARLINK-3097
Epoch Orbit370
Epoch Day15.91668981
Epoch Year2022
RAAN180.244
Inclination53.2173
Eccentricity0.0001625
Argument of Perigee29.7278
Mean Anonmoly71.9338
Mean Motion15.54006526
Decay Rate-0.00652758
L11 49448U 21104AS 22015.91668981 -.00652758 00000+0 -10755-1 0 9998
L22 49448 53.2173 180.2440 0001625 29.7278 71.9338 15.54006526 3705

Live tracking and technical data element details for STARLINK-3097 (NORAD 49448). STARLINK-3097 can be tracked NOW for your location showing map with azimuth and elevation plus other details from your city location.

Track the satellite on the map from your city or location and see movement details for azimuth, elevation, latitude, longitude, range, height, and movement on the map or in text.







IsCatalogInMostPopularTable: catalog: 49448, numindb: 17
Update: records affected: 1



GetName: 49448 STARLINK-3097

Hit Count: updated at: Thu, 20 Jan 2022 18:13:50 GMT